Regional Weather Roundup
Issued by NWS

Home | Current Version | Previous Version | Text Only | Print | Product List | Glossary On
Versions: 1 2 3 4 5 6 7 8 9 10 11 12 13 14 15 16 17 18 19 20 21 22 23 24 25 26 27 28 29 30 31 32 33 34 35 36 37 38 39 40 41 42 43 44 45 46 47 48 49 50
000
ASUS44 KJAN 211610
RWRMS

MISSISSIPPI HOURLY WEATHER ROUNDUP
NATIONAL WEATHER SERVICE JACKSON MS
1100 AM CDT MON APR 21 2014

NOTE: "FAIR: INDICATES FEW OR NO CLOUDS BELOW 12,000 FEET WITH NO
SIGNIFICANT WEATHER AND/OR OBSTRUCTIONS TO VISIBILITY.

MSZ001>002-007>008-010>013-018>021-025>028-034>036-211700-
NORTHWEST MISSISSIPPI

CITY           SKY/WX    TMP DP  RH WIND       PRES   REMARKS
CLARKSDALE       N/A     73  59  60 S9        30.07S
CLEVELAND      PTSUNNY   75  58  54 SW13      30.07S
GREENWOOD      MOSUNNY   74  57  55 SW7       30.09S
GREENVILLE     CLOUDY    71  57  61 SW9       30.08R
GRENADA        CLOUDY    75  54  46 SW7       30.08F
OLIVE BRANCH   PTSUNNY   75  55  50 S12G21    30.07S
OXFORD         FAIR      73  54  49 SW8       30.10S
TUNICA         MOSUNNY   73  57  56 S10       30.06F
$$

MSZ003>006-009-014>017-022>024-029>033-037>039-211700-
NORTHEAST MISSISSIPPI

CITY           SKY/WX    TMP DP  RH WIND       PRES   REMARKS
BELMONT        FAIR      72  54  52 S9        30.11S
COLUMBUS AFB   MOSUNNY   74  56  54 S6        30.12S
CORINTH        FAIR      75  52  43 SW9       30.09F
GOLDN TRIANGLE MOSUNNY   72  55  56 SW8       30.14S
STARKVILLE     FAIR      73  55  53 S9        30.11S
TUPELO         SUNNY     74  56  53 SW10      30.10F
$$

MSZ040-058-211700-
CENTRAL MISSISSIPPI

CITY           SKY/WX    TMP DP  RH WIND       PRES   REMARKS
JACKSON INTL   SUNNY     70  60  70 S7        30.12S
JACKSON HAWKNS SUNNY     72  59  63 MISG      30.12S
MERIDIAN KEY   SUNNY     73  56  54 S10       30.12F
MERIDIAN NAS   MOSUNNY   75  56  51 VRB7      30.12F
RAYMOND        FAIR      72  66  83 W9        30.12S
VICKSBURG      CLOUDY    73  58  59 S9        30.11S
$$

MSZ059>079-211700-
SOUTH MISSISSIPPI

CITY           SKY/WX    TMP DP  RH WIND       PRES   REMARKS
BROOKHAVEN     FAIR      72  61  68 S5        30.14S
COLUMBIA       FAIR      73  59  60 MISG      30.12F
HATTIESBURG    SUNNY     74  56  53 SE9       30.14F
MCCOMB         MOSUNNY   71  57  61 MISG      30.13F
NATCHEZ        SUNNY     70  61  73 S8        30.13S
PINE BELT      SUNNY     73  54  49 S13       30.14S
$$

MSZ080>082-211700-
COASTAL MISSISSIPPI

CITY           SKY/WX    TMP DP  RH WIND       PRES   REMARKS
BAY ST LOUIS   CLOUDY    66  55  68 SE6       30.16R
BILOXI         CLOUDY    69  58  68 SE10      30.14F
PASCAGOULA     PTSUNNY   70  57  63 E10G18    30.15F
GULFPORT       CLOUDY    70  58  65 SE13      30.14S
$$



USA.gov is the U.S. government's official web portal to all federal, state and local government web resources and services.